Time,TemperatureF,DewpointF,PressureIn,WindDirection,WindDirectionDegrees,WindSpeedMPH,WindSpeedGustMPH,Humidity,HourlyPrecipIn,Conditions,Clouds,dailyrainin,SolarRadiationWatts/m^2,SoftwareType,DateUTC
2013-08-14 00:01:00,51.0,35.0,-100.00,North,6,2.0,3.0,55,0.00,,,0.00,0.000000,,2013-08-14 06:01:00,
2013-08-14 00:11:00,51.0,35.0,-100.00,North,6,2.0,3.0,55,0.00,,,0.00,0.000000,,2013-08-14 06:11:00,
2013-08-14 00:21:00,51.0,35.0,-100.00,North,6,2.0,3.0,55,0.00,,,0.00,0.000000,,2013-08-14 06:21:00,
2013-08-14 00:52:00,49.0,37.0,-100.00,NNE,19,2.0,3.0,64,0.00,,,0.00,0.000000,,2013-08-14 06:52:00,
2013-08-14 01:01:00,49.0,37.0,-100.00,NNE,19,2.0,3.0,64,0.00,,,0.00,0.000000,,2013-08-14 07:01:00,
2013-08-14 01:21:00,49.0,37.0,-100.00,NNE,19,2.0,3.0,64,0.00,,,0.00,0.000000,,2013-08-14 07:21:00,
2013-08-14 01:52:00,49.0,37.0,-100.00,East,89,3.0,4.0,62,-99.99,,,0.00,0.000000,,2013-08-14 07:52:00,
2013-08-14 02:01:00,49.0,37.0,-100.00,East,89,3.0,4.0,62,-99.99,,,0.00,0.000000,,2013-08-14 08:01:00,
2013-08-14 02:11:00,49.0,37.0,-100.00,East,89,3.0,4.0,62,-99.99,,,0.00,0.000000,,2013-08-14 08:11:00,
2013-08-14 02:21:00,49.0,37.0,-100.00,East,89,3.0,4.0,62,-99.99,,,0.00,0.000000,,2013-08-14 08:21:00,
2013-08-14 02:52:00,49.0,36.0,-100.00,NNE,18,0.0,3.0,61,0.00,,,0.00,0.000000,,2013-08-14 08:52:00,
2013-08-14 03:02:00,49.0,36.0,-100.00,NNE,18,0.0,3.0,61,0.00,,,0.00,0.000000,,2013-08-14 09:02:00,
2013-08-14 03:11:00,49.0,36.0,-100.00,NNE,18,0.0,3.0,61,0.00,,,0.00,0.000000,,2013-08-14 09:11:00,
2013-08-14 03:21:00,49.0,36.0,-100.00,NNE,18,0.0,3.0,61,0.00,,,0.00,0.000000,,2013-08-14 09:21:00,
2013-08-14 03:53:00,47.0,35.0,-100.00,NNE,19,2.0,4.0,64,0.00,,,0.00,0.000000,,2013-08-14 09:53:00,
2013-08-14 04:03:00,47.0,35.0,-100.00,NNE,19,2.0,4.0,64,0.00,,,0.00,0.000000,,2013-08-14 10:03:00,
2013-08-14 04:11:00,47.0,35.0,-100.00,NNE,19,2.0,4.0,64,0.00,,,0.00,0.000000,,2013-08-14 10:11:00,
2013-08-14 04:22:00,47.0,35.0,-100.00,NNE,19,2.0,4.0,64,0.00,,,0.00,0.000000,,2013-08-14 10:22:00,
2013-08-14 04:52:00,47.0,34.0,-100.00,NE,40,2.0,3.0,61,0.00,,,0.00,0.000000,,2013-08-14 10:52:00,
2013-08-14 05:02:00,47.0,34.0,-100.00,NE,40,2.0,3.0,61,0.00,,,0.00,0.000000,,2013-08-14 11:02:00,
2013-08-14 05:11:00,47.0,34.0,-100.00,NE,40,2.0,3.0,61,0.00,,,0.00,0.000000,,2013-08-14 11:11:00,
2013-08-14 05:21:00,47.0,34.0,-100.00,NE,40,2.0,3.0,61,0.00,,,0.00,0.000000,,2013-08-14 11:21:00,
2013-08-14 05:52:00,48.0,33.0,-100.00,NNE,33,1.0,3.0,55,0.00,,,0.00,0.000000,,2013-08-14 11:52:00,
2013-08-14 06:01:00,48.0,33.0,-100.00,NNE,33,1.0,3.0,55,0.00,,,0.00,0.000000,,2013-08-14 12:01:00,
2013-08-14 06:11:00,48.0,33.0,-100.00,NNE,33,1.0,3.0,55,0.00,,,0.00,0.000000,,2013-08-14 12:11:00,
2013-08-14 06:21:00,48.0,33.0,-100.00,NNE,33,1.0,3.0,55,0.00,,,0.00,0.000000,,2013-08-14 12:21:00,
2013-08-14 06:52:00,48.0,33.0,-100.00,NE,34,2.0,4.0,55,0.00,,,0.00,0.000000,,2013-08-14 12:52:00,
2013-08-14 07:02:00,48.0,33.0,-100.00,NE,34,2.0,4.0,55,0.00,,,0.00,0.000000,,2013-08-14 13:02:00,
2013-08-14 07:11:00,48.0,33.0,-100.00,NE,34,2.0,4.0,55,0.00,,,0.00,0.000000,,2013-08-14 13:11:00,
2013-08-14 07:21:00,48.0,33.0,-100.00,NE,34,2.0,4.0,55,0.00,,,0.00,0.000000,,2013-08-14 13:21:00,
2013-08-14 07:52:00,50.0,33.0,-100.00,NNE,24,0.0,4.0,52,0.00,,,0.00,11.000000,,2013-08-14 13:52:00,
2013-08-14 08:01:00,50.0,33.0,-100.00,NNE,24,0.0,4.0,52,0.00,,,0.00,11.000000,,2013-08-14 14:01:00,
2013-08-14 08:11:00,50.0,33.0,-100.00,NNE,24,0.0,4.0,52,0.00,,,0.00,11.000000,,2013-08-14 14:11:00,
2013-08-14 08:21:00,50.0,33.0,-100.00,NNE,24,0.0,4.0,52,0.00,,,0.00,11.000000,,2013-08-14 14:21:00,
2013-08-14 08:52:00,58.0,40.0,-100.00,North,9,2.0,3.0,51,0.00,,,0.00,122.000000,,2013-08-14 14:52:00,
2013-08-14 09:02:00,58.0,40.0,-100.00,North,9,2.0,3.0,51,0.00,,,0.00,122.000000,,2013-08-14 15:02:00,
2013-08-14 09:11:00,58.0,40.0,-100.00,North,9,2.0,3.0,51,0.00,,,0.00,122.000000,,2013-08-14 15:11:00,
2013-08-14 09:22:00,58.0,40.0,-100.00,North,9,2.0,3.0,51,0.00,,,0.00,122.000000,,2013-08-14 15:22:00,
2013-08-14 09:57:00,64.0,43.0,-100.00,NE,54,1.0,4.0,47,0.00,,,0.00,305.000000,,2013-08-14 15:57:00,
2013-08-14 10:04:00,64.0,43.0,-100.00,NE,54,1.0,4.0,47,0.00,,,0.00,305.000000,,2013-08-14 16:04:00,
2013-08-14 10:13:00,64.0,43.0,-100.00,NE,54,1.0,4.0,47,0.00,,,0.00,305.000000,,2013-08-14 16:13:00,
2013-08-14 10:23:00,64.0,43.0,-100.00,NE,54,1.0,4.0,47,0.00,,,0.00,305.000000,,2013-08-14 16:23:00,
2013-08-14 10:24:00,70.0,40.0,-100.00,ESE,118,3.0,5.0,33,0.00,,,0.00,610.000000,,2013-08-14 16:24:00,
2013-08-14 11:03:00,70.0,40.0,-100.00,ESE,118,3.0,5.0,33,0.00,,,0.00,610.000000,,2013-08-14 17:03:00,
2013-08-14 11:20:00,70.0,40.0,-100.00,ESE,118,3.0,5.0,33,0.00,,,0.00,610.000000,,2013-08-14 17:20:00,
2013-08-14 11:24:00,76.0,37.0,-100.00,SE,128,3.0,7.0,24,0.00,,,0.00,851.000000,,2013-08-14 17:24:00,
2013-08-14 11:55:00,76.0,37.0,-100.00,SE,128,3.0,7.0,24,0.00,,,0.00,851.000000,,2013-08-14 17:55:00,
2013-08-14 12:05:00,76.0,37.0,-100.00,SE,128,3.0,7.0,24,0.00,,,0.00,851.000000,,2013-08-14 18:05:00,
2013-08-14 12:23:00,76.0,-99.9,-100.00,SE,128,3.0,7.0,24,0.00,,,0.00,851.000000,,2013-08-14 18:23:00,
2013-08-14 13:01:00,74.0,37.0,-100.00,ENE,75,7.0,13.0,26,0.00,,,0.00,967.000000,,2013-08-14 19:01:00,
2013-08-14 13:12:00,74.0,37.0,-100.00,ENE,75,7.0,13.0,26,0.00,,,0.00,967.000000,,2013-08-14 19:12:00,
2013-08-14 13:56:00,75.0,35.0,-100.00,NNE,12,7.0,18.0,23,0.00,,,0.00,870.000000,,2013-08-14 19:56:00,
2013-08-14 14:04:00,75.0,35.0,-100.00,NNE,12,7.0,18.0,23,0.00,,,0.00,870.000000,,2013-08-14 20:04:00,
2013-08-14 14:11:00,75.0,35.0,-100.00,NNE,12,7.0,18.0,23,0.00,,,0.00,870.000000,,2013-08-14 20:11:00,
2013-08-14 14:52:00,73.0,35.0,-100.00,NNE,28,5.0,14.0,25,0.00,,,0.00,607.000000,,2013-08-14 20:52:00,
2013-08-14 15:05:00,73.0,35.0,-100.00,NNE,28,5.0,14.0,25,0.00,,,0.00,607.000000,,2013-08-14 21:05:00,
2013-08-14 15:13:00,73.0,35.0,-100.00,NNE,28,5.0,14.0,25,0.00,,,0.00,607.000000,,2013-08-14 21:13:00,
2013-08-14 15:23:00,73.0,35.0,-100.00,NNE,28,5.0,14.0,25,0.00,,,0.00,607.000000,,2013-08-14 21:23:00,
2013-08-14 15:55:00,74.0,32.0,-100.00,NW,318,4.0,18.0,21,0.00,,,0.00,771.000000,,2013-08-14 21:55:00,
2013-08-14 16:04:00,74.0,32.0,-100.00,NW,318,4.0,18.0,21,0.00,,,0.00,771.000000,,2013-08-14 22:04:00,
2013-08-14 16:13:00,74.0,32.0,-100.00,NW,318,4.0,18.0,21,0.00,,,0.00,771.000000,,2013-08-14 22:13:00,
2013-08-14 16:23:00,74.0,32.0,-100.00,NW,318,4.0,18.0,21,0.00,,,0.00,771.000000,,2013-08-14 22:23:00,
2013-08-14 16:24:00,71.0,33.0,-100.00,NNW,344,5.0,20.0,25,0.00,,,0.00,429.000000,,2013-08-14 22:24:00,
2013-08-14 16:54:00,71.0,33.0,-100.00,NNW,344,5.0,20.0,25,0.00,,,0.00,429.000000,,2013-08-14 22:54:00,
2013-08-14 17:05:00,71.0,33.0,-100.00,NNW,344,5.0,20.0,25,0.00,,,0.00,429.000000,,2013-08-14 23:05:00,
2013-08-14 17:13:00,71.0,33.0,-100.00,NNW,344,5.0,20.0,25,0.00,,,0.00,429.000000,,2013-08-14 23:13:00,
2013-08-14 17:56:00,76.0,29.0,-100.00,NW,317,10.0,15.0,18,0.00,,,0.00,796.000000,,2013-08-14 23:56:00,
2013-08-14 18:03:00,76.0,29.0,-100.00,NW,317,10.0,15.0,18,0.00,,,0.00,796.000000,,2013-08-15 00:03:00,
2013-08-14 18:12:00,76.0,29.0,-100.00,NW,317,10.0,15.0,18,0.00,,,0.00,796.000000,,2013-08-15 00:12:00,
2013-08-14 18:22:00,76.0,29.0,-100.00,NW,317,10.0,15.0,18,0.00,,,0.00,796.000000,,2013-08-15 00:22:00,
2013-08-14 18:52:00,71.0,32.0,-100.00,West,279,4.0,15.0,24,0.00,,,0.00,394.000000,,2013-08-15 00:52:00,
2013-08-14 19:01:00,71.0,32.0,-100.00,West,279,4.0,15.0,24,0.00,,,0.00,394.000000,,2013-08-15 01:01:00,
2013-08-14 19:16:00,71.0,32.0,-100.00,West,279,4.0,15.0,24,0.00,,,0.00,394.000000,,2013-08-15 01:16:00,
2013-08-14 19:22:00,71.0,32.0,-100.00,West,279,4.0,15.0,24,0.00,,,0.00,394.000000,,2013-08-15 01:22:00,
2013-08-14 19:52:00,72.0,33.0,-100.00,NW,313,3.0,19.0,24,0.00,,,0.00,150.000000,,2013-08-15 01:52:00,
2013-08-14 20:01:00,72.0,33.0,-100.00,NW,313,3.0,19.0,24,0.00,,,0.00,150.000000,,2013-08-15 02:01:00,
2013-08-14 20:11:00,72.0,33.0,-100.00,NW,313,3.0,19.0,24,0.00,,,0.00,150.000000,,2013-08-15 02:11:00,
2013-08-14 20:21:00,72.0,33.0,-100.00,NW,313,3.0,19.0,24,0.00,,,0.00,150.000000,,2013-08-15 02:21:00,
2013-08-14 21:11:00,69.0,33.0,-100.00,NNE,26,2.0,5.0,26,0.00,,,-99.99,78.000000,,2013-08-15 03:11:00,
2013-08-14 21:22:00,69.0,33.0,-100.00,NNE,26,2.0,5.0,26,0.00,,,-99.99,78.000000,,2013-08-15 03:22:00,
2013-08-14 21:53:00,58.0,34.0,-100.00,NW,318,2.0,4.0,40,0.00,,,0.00,2.000000,,2013-08-15 03:53:00,
2013-08-14 22:03:00,58.0,34.0,-100.00,NW,318,2.0,4.0,40,0.00,,,0.00,2.000000,,2013-08-15 04:03:00,
2013-08-14 22:12:00,58.0,34.0,-100.00,NW,318,2.0,4.0,40,0.00,,,0.00,2.000000,,2013-08-15 04:12:00,
2013-08-14 22:22:00,58.0,34.0,-100.00,NW,318,2.0,4.0,40,0.00,,,0.00,2.000000,,2013-08-15 04:22:00,
2013-08-14 22:52:00,56.0,31.0,-100.00,NNE,25,3.0,5.0,39,0.00,,,-99.99,0.000000,,2013-08-15 04:52:00,
2013-08-14 23:02:00,56.0,31.0,-100.00,NNE,25,3.0,5.0,39,0.00,,,-99.99,0.000000,,2013-08-15 05:02:00,
2013-08-14 23:12:00,56.0,31.0,-100.00,NNE,25,3.0,5.0,39,0.00,,,-99.99,0.000000,,2013-08-15 05:12:00,
2013-08-14 23:22:00,56.0,31.0,-100.00,NNE,25,3.0,5.0,39,0.00,,,-99.99,0.000000,,2013-08-15 05:22:00,
2013-08-14 23:52:00,52.0,32.0,-100.00,NE,44,1.0,5.0,47,0.00,,,0.00,0.000000,,2013-08-15 05:52:00,